Other Surface Observations
Issued by NWS

Home | Current Version | Previous Version | Text Only | Print | Product List | Glossary On
Versions: 1 2 3 4 5 6 7 8 9 10 11 12 13 14 15 16 17 18 19 20 21 22 23 24 25 26 27 28 29 30 31 32 33 34 35 36 37 38 39 40 41 42 43 44 45 46 47 48 49 50
000
SXUS52 KTAE 290718
OSOTAE
OSOTAE
North Florida/South Alabama/Southwest Georgia Weather Roundup
National Weather Service Tallahassee Florida
300 AM EDT SUN MAY 29 2016

Note: "fair" indicates few or no clouds below 12,000 feet with no
significant weather and/or obstructions to visibility.

!FLZ017-115-028-034-025-290800
...North Florida...

CITY           SKY/WX    TMP DP  RH WIND       PRES   REMARKS
TALLAHASSEE    CLEAR     75  68  78 N5        30.04S
APALACHICOLA   PTCLDY    73  73 100 NW5       30.03F
PERRY          PTCLDY    74  69  85 CALM      30.05S
CROSS CITY       N/A     73  68  84 CALM      30.04S
JACKSONVILLE   PTCLDY    67  66  97 NW7       30.02F
$$

!FLZ112-006-005-002-011-290800
...Florida Panhandle...

CITY           SKY/WX    TMP DP  RH WIND       PRES   REMARKS
MARIANNA       CLEAR     71  70  96 CALM      30.03F
BONIFAY        NOT AVBL
PANAMA CITY NW FAIR      71  68  90 NW5       30.04F
TYNDALL AFB    CLEAR     72  71  97 NW3       30.04F
TYND DRONE APT FAIR      74  73  99 NW5       30.04F
DE FUNIAK SPR  FAIR      72  65  80 CALM      30.06F
EGLIN AFB      PTCLDY    69  64  82 NW3       30.05F
DESTIN         CLEAR     75  69  81 N3        30.05F
HURLBURT       CLEAR     67  64  91 N3        30.04F
CRESTVIEW      CLEAR     66  64  93 CALM      30.07F
PENSACOLA      CLEAR     73  67  81 CALM      30.05F
$$

!ALZ063-066-290800
...South Alabama...

CITY           SKY/WX    TMP DP  RH WIND       PRES   REMARKS
DOTHAN         CLEAR     72  67  84 NW6       30.09S
OZARK CAIRNS   CLEAR     70  69  96 NW5       30.05F
FT RUCKER HELI NOT AVBL
RUCKER HELI 3  NOT AVBL
RUCKER HELI 2  NOT AVBL
FLORALA APT    CLOUDY    71  67  87 CALM      30.08F
ANDALUSIA      CLOUDY    75  69  81 CALM      30.07S
TROY           CLOUDY    69  67  93 CALM      30.08S
EUFALA         FAIR      66  62  87 CALM      30.06
MOBILE         CLEAR     66  66 100 CALM      30.07F
$$

!GAZ120>161-290800
...Southwest and South Central Georgia...

CITY           SKY/WX    TMP DP  RH WIND       PRES   REMARKS
THOMASVILLE    FAIR      72  68  88 E5        30.06F
BAINBRIDGE     PTCLDY    72  68  88 CALM      30.05S
MOODY AFB      PTCLDY    68  65  88 S5        30.05S
VALDOSTA       CLEAR     71  67  87 SE3       30.06F
MOULTRIE       CLEAR     72  64  78 CALM      30.06F
BLAKELY        CLEAR     68  66  94 CALM      30.06S
ALBANY         CLEAR     70  65  84 CALM      30.07F
TIFTON         FAIR      70  66  89 CALM      30.06S
FITZGERALD     FAIR      71  64  77 E3        30.08F
CORDELE        FAIR      71  68  91 CALM      30.07F
AMERICUS       FAIR      64  64 100 NE3       30.08F
HOMERVILLE     FAIR      68  64  88 CALM      30.05F
$$

!GMZ750-755-770-775-290800
...Coastal and Buoy Obs...

STATION/POSITION TIME  TEMP    WIND        PRES    VSBY  WAVE
                       AIR SEA DIR/SP/G                  HT/PER
                 (UTC) (F)     (DEG/KT/KT) (MB)    (MI)  (FT/S)
KEATON BEACH     0700   72      40/  3/  4 1016.5F
CEDAR KEY        0700   78     100/  7/  8 1017.4F
C TOWER          0700   76     300/  7/  9 1017.5F
APALACHICOLA BUO 0650   77 78  350/ 10/ 10 1016.8F         1/ 4
PANAMA CITY BUOY 0650   78 80  350/  8/  8 1017.1F         1/ 5
MOBILE BUOY      0700   78 79  130/  4/  6 1017.1F
ORANGE BCH AL BU 0650   78 80  200/  2/  2 1016.9F         2/ 5
$$




USA.gov is the U.S. government's official web portal to all federal, state and local government web resources and services.